193P/LINEAR-NEAT (2001)

Japanese version
Home page
Total 6,336 html files since Dec. 4, 1995
Updated on October 27, 2007

---------------------------------------------------------------------

* Profile

Designation 193P/2001 Q5
Discovery Date August 17 and 28, 2001
Magnitude 17.3 mag
Discoverer Lincoln Laboratory Near-Earth Asteroid Research project, Near-Earth-Asteroid Tracking Team (Jet Propulsion Laboratory)

* Orbital Elements

                    Epoch = 2001 June 20.0 TT
     T = 2001 June 11.6210 TT         Peri. =   6.3996
     e = 0.416559                     Node  = 336.2663  2000.0
     q = 2.043148 AU                  Incl. =  10.9448
       a =  3.501896 AU    n = 0.1504005    P =   6.553 years

* Finding Charts

* Magnitudes Graph

        m1 = 12.5 + 5 log d + 10.0 log r

---------------------------------------------------------------------

The orbital elements are printed on IAUC 8885.
The charts are made with StellaNavigator Ver.2.0 for Windows (AstroArts / ASCII).
The magnitudes graphs are made with Comet for Windows.

---------------------------------------------------------------------

Copyright(C) 1995-2008 Seiichi Yoshida (comet@aerith.net). All rights reserved.